DW4433 Weather Reports


time (UTC)temp
C
wind
direction
speed
KPH
gust
KPH
rain 1hr
cm
rain 24hr
cm
rain mn
cm
humidity
%
barometer
mb
20260507224535 9 22 0.0 0.0 0.00 0.00 0.00 100 1016.1
20260507223057 9 24 0.0 0.0 0.00 0.00 0.00 100 1016.0
20260507221522 9 26 0.0 1.6 0.00 0.00 0.00 100 1016.1
20260507220048 9 344 0.0 0.0 0.00 0.00 0.00 100 1016.3
20260507214553 9 345 0.0 1.6 0.00 0.00 0.00 100 1016.4
20260507213038 8 321 0.0 0.0 0.00 0.00 0.00 100 1016.4
20260507211533 8 202 0.0 0.0 0.00 0.00 0.00 100 1016.4
20260507210018 8 202 0.0 0.0 0.00 0.00 0.00 100 1016.4
20260507204512 10 202 0.0 0.0 0.00 0.00 0.00 100 1016.4
20260507203017 10 201 0.0 0.0 0.00 0.00 0.00 100 1016.2
20260507201502 10 202 0.0 0.0 0.00 0.00 0.00 100 1016.1
20260507200109 10 202 0.0 0.0 0.00 0.00 0.00 100 1015.7
20260507194554 11 202 0.0 0.0 0.00 0.00 0.00 100 1015.5
20260507193049 11 202 0.0 0.0 0.00 0.00 0.00 100 1015.4
20260507191542 12 202 0.0 0.0 0.00 0.00 0.00 100 1015.4
20260507190039 12 201 0.0 0.0 0.00 0.00 0.00 100 1015.4
20260507184534 12 200 0.0 3.2 0.00 0.00 0.00 100 1015.4
20260507183036 13 207 0.0 1.6 0.00 0.00 0.00 100 1015.3
20260507181523 15 202 0.0 3.2 0.00 0.00 0.00 15 1015.4
20260507180017 15 205 0.0 1.6 0.00 0.00 0.00 18 1015.3
20260507174519 15 195 0.0 3.2 0.00 0.00 0.00 11 1015.3
20260507173015 15 198 0.0 3.2 0.00 0.00 0.00 9 1015.3
20260507171503 14 200 0.0 3.2 0.00 0.00 0.00 100 1015.5
20260507170057 15 205 0.0 6.4 0.00 0.00 0.00 100 1015.5
20260507164554 15 202 0.0 6.4 0.00 0.00 0.00 100 1015.5
20260507163049 15 184 0.0 6.4 0.00 0.00 0.00 100 1015.4
20260507161551 15 198 0.0 3.2 0.00 0.00 0.00 100 1015.4
20260507160041 15 193 0.0 6.4 0.00 0.00 0.00 100 1015.5
20260507154534 15 194 0.0 8.0 0.00 0.00 0.00 100 1015.6
20260507153034 15 201 0.0 8.0 0.00 0.00 0.00 100 1015.7
20260507151525 15 181 0.0 8.0 0.00 0.00 0.00 100 1015.6
20260507150019 15 34 0.0 11.3 0.00 0.00 0.00 100 1015.7
20260507144520 15 194 3.2 11.3 0.00 0.00 0.00 100 1015.6
20260507143010 15 194 1.6 11.3 0.00 0.00 0.00 100 1015.6
20260507141536 16 235 1.6 11.3 0.00 0.00 0.00 100 1015.8
20260507140033 16 186 0.0 9.7 0.00 0.00 0.00 100 1015.9
20260507134525 16 191 0.0 8.0 0.00 0.00 0.00 100 1015.9
20260507133020 15 12 0.0 8.0 0.00 0.00 0.00 100 1015.9
20260507131523 16 187 1.6 11.3 0.00 0.00 0.00 100 1015.9
20260507130011 16 178 0.0 11.3 0.00 0.00 0.00 100 1016.0
20260507124505 15 186 1.6 9.7 0.00 0.00 0.00 100 1015.9
20260507123110 15 181 0.0 9.7 0.00 0.00 0.00 100 1016.0
20260507121601 15 162 1.6 12.9 0.00 0.00 0.00 100 1016.0
20260507120052 15 215 3.2 11.3 0.00 0.00 0.00 100 1016.0
20260507114550 16 199 1.6 11.3 0.00 0.00 0.00 100 1016.1
20260507113041 15 205 0.0 6.4 0.00 0.00 0.00 100 1016.1
20260507111536 15 210 1.6 11.3 0.00 0.00 0.00 100 1016.1
20260507110032 15 196 0.0 11.3 0.00 0.00 0.00 100 1016.1
20260507104525 14 192 0.0 8.0 0.00 0.00 0.00 100 1016.2
20260507103022 14 192 0.0 6.4 0.00 0.00 0.00 100 1016.2
20260507101523 13 197 1.6 9.7 0.00 0.00 0.00 100 1016.3
20260507100012 13 201 0.0 8.0 0.00 0.00 0.00 100 1016.3
20260507094505 13 224 0.0 6.4 0.00 0.00 0.00 100 1016.2
20260507093001 13 192 0.0 1.6 0.00 0.00 0.00 100 1016.2
20260507091559 13 177 0.0 6.4 0.00 0.00 0.00 100 1016.1
20260507090052 13 203 0.0 3.2 0.00 0.00 0.00 100 1016.0
20260507084518 13 178 0.0 0.0 0.00 0.00 0.00 100 1016.1
20260507083014 13 30 0.0 0.0 0.00 0.00 0.00 100 1016.0
20260507081507 12 36 0.0 0.0 0.00 0.00 0.00 100 1015.9
20260507080003 12 37 0.0 1.6 0.00 0.00 0.00 100 1015.9
20260507074618 12 340 0.0 0.0 0.00 0.00 0.00 100 1015.8
20260507073101 11 42 0.0 1.6 0.00 0.00 0.00 100 1015.9
20260507071550 11 57 0.0 0.0 0.00 0.00 0.00 100 1015.8
20260507070046 10 58 0.0 0.0 0.00 0.00 0.00 100 1015.7
20260507064542 10 59 0.0 0.0 0.00 0.00 0.00 100 1015.7
20260507063037 10 59 0.0 0.0 0.00 0.00 0.00 100 1015.6
20260507061531 10 65 0.0 0.0 0.00 0.00 0.00 100 1015.5
20260507060023 10 65 0.0 0.0 0.00 0.00 0.00 100 1015.4
20260507054523 10 317 0.0 0.0 0.00 0.00 0.00 100 1015.3
20260507053015 10 317 0.0 0.0 0.00 0.00 0.00 100 1015.1
20260507051511 9 323 0.0 0.0 0.00 0.00 0.00 100 1015.1
20260507050005 9 317 0.0 0.0 0.00 0.00 0.00 100 1015.1
20260507044601 9 317 0.0 0.0 0.00 0.00 0.00 100 1015.0
20260507043055 9 322 0.0 0.0 0.00 0.00 0.00 100 1014.9
20260507041551 9 324 0.0 0.0 0.00 0.00 0.00 100 1014.8
20260507040017 9 324 0.0 0.0 0.00 0.00 0.00 100 1014.8
20260507034516 8 326 0.0 0.0 0.00 0.00 0.00 100 1014.8
20260507033006 9 326 0.0 0.0 0.00 0.00 0.00 100 1014.7
20260507031502 9 326 0.0 0.0 0.00 0.00 0.00 100 1014.7
20260507030059 9 326 0.0 0.0 0.00 0.00 0.00 100 1014.7
20260507024608 10 326 0.0 0.0 0.00 0.00 0.00 100 1014.7
20260507023019 10 326 0.0 0.0 0.00 0.00 0.00 100 1014.6
20260507021516 10 326 0.0 0.0 0.00 0.00 0.00 100 1014.5
20260507020008 10 326 0.0 0.0 0.00 0.00 0.00 100 1014.4
20260507014508 10 326 0.0 0.0 0.00 0.00 0.00 100 1014.4
20260507013100 10 326 0.0 0.0 0.00 0.00 0.00 100 1014.5
20260507011555 10 326 0.0 0.0 0.00 0.00 0.00 100 1014.5
20260507010049 10 326 0.0 0.0 0.00 0.00 0.00 100 1014.5
20260507004546 10 326 0.0 0.0 0.00 0.00 0.00 100 1014.4
20260507003040 10 326 0.0 0.0 0.00 0.00 0.00 100 1014.4
20260507001535 10 326 0.0 0.0 0.00 0.00 0.00 100 1014.4
20260507000101 10 325 0.0 0.0 0.00 0.00 0.00 100 1014.4
20260506234602 10 326 0.0 0.0 0.00 0.00 0.00 100 1014.4
20260506233054 10 325 0.0 0.0 0.00 0.00 0.00 100 1014.4
20260506231555 10 326 0.0 0.0 0.00 0.00 0.00 100 1014.4
20260506230053 10 326 0.0 0.0 0.00 0.00 0.00 100 1014.4